Home > Weather > Lancaster > Past weeks

Flag for USA Past Weather in Lancaster, California, USA — Yesterday and Last 2 Weeks

Now
82 °F

Clear.


Feels Like: 80 °F
Forecast: 68 / 105 °F
Wind: 12 mph from West

Location: Lancaster / Fox Field

Current Time: Jun 25, 2016 at 11:35:19 PM

Latest Report: Jun 25, 2016 at 10:56 PM


Visibility: 10 mi

Pressure: 29.87 "Hg (27.53 "Hg at 718m altitude)

Humidity: 14%

Dew Point: 28 °F

Location of LancasterLocation

Past Weather in Lancaster — Graph

°F

Lancaster Temperature Yesterday

Maximum temperature yesterday: 95 °F (at 12:56 PM)
Minimum temperature yesterday: 72 °F (at 5:56 AM)
Average temperature yesterday: 84 °F

High & Low Weather Summary for the Past Weeks

 TemperatureHumidityPressure
High111 °F (Jun 20, 2:56 PM)74% (Jun 12, 2:56 AM)30.08 "Hg (Jun 12, 2:56 AM)
Low53 °F (Jun 16, 4:56 AM)4% (Jun 14, 12:56 PM)29.78 "Hg (Jun 25, 4:56 PM)
Average79 °F28%29.92 "Hg
* Reported Jun 10 9:56 PM — Jun 25 9:56 PM, Lancaster, Weather by CustomWeather, © 2016

Note: Actual official high and low records may vary slightly from our data, if they occured in-between our weather recording intervals... More about our weather records

Advertising

Lancaster Weather History for the Previous 24 Hours

Scroll right to see more
 ConditionsComfort  
Time TempWeatherWind HumidityBarometerVisibility
9:56 PM
Sat, Jun 25
82 °FClear.20 mph20%29.85 "Hg10 mi
8:56 PM83 °FSunny.24 mph21%29.84 "Hg10 mi
7:56 PM86 °FSunny.24 mph20%29.83 "Hg10 mi
6:56 PM91 °FSunny.24 mph16%29.81 "Hg10 mi
5:56 PM97 °FSunny.26 mph13%29.79 "Hg10 mi
4:56 PM104 °FSunny.3 mph5%29.78 "Hg10 mi
3:56 PM103 °FSunny.5 mph5%29.80 "Hg10 mi
2:56 PM103 °FSunny.N/A6%29.82 "Hg10 mi
1:56 PM100 °FSunny.N/A6%29.84 "Hg10 mi
12:56 PM100 °FSunny.9 mph7%29.85 "Hg10 mi
11:56 AM96 °FSunny.9 mph9%29.87 "Hg10 mi
10:56 AM93 °FSunny.No wind10%29.88 "Hg10 mi
9:56 AM90 °FSunny.6 mph12%29.89 "Hg10 mi
8:56 AM85 °FSunny.3 mph12%29.89 "Hg10 mi
7:56 AM80 °FSunny.8 mph14%29.89 "Hg10 mi
6:56 AM74 °FSunny.8 mph21%29.88 "Hg10 mi
5:56 AM72 °FClear.14 mph23%29.88 "Hg10 mi
4:56 AM71 °FClear.13 mph27%29.86 "Hg10 mi
3:56 AM72 °FClear.16 mph23%29.85 "Hg10 mi
2:56 AM73 °FClear.18 mph21%29.84 "Hg10 mi
1:56 AM74 °FClear.24 mph19%29.84 "Hg10 mi
12:56 AM75 °FClear.18 mph18%29.85 "Hg10 mi
11:56 PM
Fri, Jun 24
77 °FClear.23 mph19%29.85 "Hg10 mi
Weather by CustomWeather, © 2016

See weather overviewHow to use our weather pages